This demonstration page uses our WeatherBlox Daily Observations layout. Learn more.

Left ArrowRight Arrow

38.80484, -77.04692

Hourly Observations for May 27, 2022

Temp ( °F °C ) Dew Point ( °F °C ) Humidity (%) Winds ( mph kmh ) Pressure ( in mb ) Visibility ( mi km ) Precip ( " mm )
12:22 am 00:22 Cloudy 69 20.6 65 18.3 87 87 SSE 5 7 30.06 1018 10 16 0.00 0.00
12:35 am 00:35 Cloudy 69 20.6 65 18.3 87 87 SSE 7 11 30.06 1018 10 16 0.00 0.00
12:52 am 00:52 Cloudy 69 20.6 65 18.3 87 87 SE 7 11 30.04 1017 10 16 0.00 0.00
1:22 am 01:22 Cloudy 69 20.6 65 18.3 87 87 SSE 6 9 30.03 1017 10 16 0.00 0.00
1:52 am 01:52 Cloudy 69 20.6 65 18.3 87 87 S 8 13 30.02 1017 10 16 0.00 0.00
2:52 am 02:52 Cloudy 69 20.6 65 18.3 87 87 S 9 15 30.01 1016 10 16 0.00 0.00
3:52 am 03:52 Cloudy 69 20.6 65 18.3 87 87 SSE 8 13 29.98 1015 8 13 0.00 0.00
4:19 am 04:19 Cloudy 69 20.6 65 18.3 87 87 SSE 9 15 29.98 1015 10 16 0.00 0.00
4:30 am 04:30 Cloudy 69 20.6 65 18.3 87 87 SSE 8 13 29.97 1015 10 16 0.00 0.00
4:52 am 04:52 Cloudy 69 20.6 65 18.3 87 87 SSE 6 9 29.96 1015 10 16 0.00 0.00
5:52 am 05:52 Cloudy 69 20.6 65 18.3 87 87 S 10 17 29.95 1014 10 16 0.00 0.00
6:52 am 06:52 Cloudy 70 21.1 65 18.3 84 84 SSE 12 19 29.95 1014 8 13 0.00 0.00
7:52 am 07:52 Cloudy with Drizzle 70 21.1 66 18.9 87 87 SSE 14 22 29.94 1014 8 13 0.00 0.00
8:39 am 08:39 Cloudy 71 21.7 67 19.4 87 87 S 9 15 29.93 1013 10 16 0.00 0.00
8:52 am 08:52 Mostly Cloudy 72 22.2 67 19.4 84 84 S 12 19 29.93 1013 10 16 0.00 0.00
9:45 am 09:45 Cloudy 74 23.3 67 19.4 79 79 S 13 20 29.91 1013 10 16 0.00 0.00
9:52 am 09:52 Cloudy 74 23.3 67 19.4 79 79 S 14 22 29.91 1013 10 16 0.00 0.00
10:52 am 10:52 Mostly Cloudy 76 24.4 68 20 77 77 S 14 22 29.89 1012 10 16 0.00 0.00
11:52 am 11:52 Mostly Cloudy 79 26.1 69 20.6 72 72 S 20 31 29.86 1011 10 16 0.00 0.00
12:17 pm 12:17 Cloudy with Nearby Thunderstorms 77 25 68 20 74 74 S 20 31 29.86 1011 10 16 0.00 0.00
12:25 pm 12:25 Cloudy with Nearby Thunderstorms 75 23.9 64 17.8 69 69 WSW 31 50 29.90 1012 2 3 0.00 0.00
12:27 pm 12:27 Cloudy with Nearby Thunderstorms 72 22.2 62 16.7 71 71 SW 30 48 29.91 1013 2 2 0.00 0.00
12:31 pm 12:31 Cloudy with Strong Thunderstorms 69 20.6 63 17.2 81 81 SW 20 31 29.90 1012 1 2 0.03 0.76
12:41 pm 12:41 Cloudy with Thunderstorms 68 20 63 17.2 84 84 S 13 20 29.89 1012 3 5 0.12 3.05
12:52 pm 12:52 Cloudy with Nearby Thunderstorms 68 20 64 17.8 87 87 S 12 19 29.88 1012 7 11 0.13 3.30
1:19 pm 13:19 Mostly Cloudy with Light Rain 69 20.6 64 17.8 84 84 S 8 13 29.88 1012 10 16 0.01 0.25
1:52 pm 13:52 Mostly Cloudy with Light Rain 69 20.6 65 18.3 87 87 SE 5 7 29.82 1010 10 16 0.02 0.51
2:52 pm 14:52 Cloudy 70 21.1 65 18.3 84 84 S 13 20 29.84 1010 10 16 0.00 0.00
3:02 pm 15:02 Cloudy 70 21.1 65 18.3 84 84 S 14 22 29.84 1010 10 16 0.00 0.00
3:52 pm 15:52 Cloudy 72 22.2 65 18.3 79 79 S 14 22 29.82 1010 10 16 0.00 0.00
4:52 pm 16:52 Cloudy 73 22.8 66 18.9 79 79 S 10 17 29.79 1009 10 16 0.00 0.00
5:52 pm 17:52 Cloudy 73 22.8 66 18.9 79 79 S 13 20 29.78 1008 10 16 0.00 0.00
6:52 pm 18:52 Cloudy 73 22.8 66 18.9 79 79 S 10 17 29.76 1008 10 16 0.00 0.00
7:52 pm 19:52 Cloudy 73 22.8 66 18.9 79 79 SSE 6 9 29.76 1008 10 16 0.00 0.00
8:31 pm 20:31 Cloudy 73 22.8 67 19.4 81 81 S 3 6 29.76 1008 10 16 0.00 0.00
8:44 pm 20:44 Cloudy with Nearby Thunderstorms 73 22.8 67 19.4 81 81 SSE 6 9 29.76 1008 10 16 0.00 0.00
8:52 pm 20:52 Cloudy with Thunderstorms 72 22.2 67 19.4 84 84 S 6 9 29.76 1008 10 16 0.00 0.00
9:16 pm 21:16 Cloudy with Light Rain 69 20.6 64 17.8 84 84 S 18 30 29.77 1008 6 10 0.02 0.51
9:22 pm 21:22 Cloudy with Heavy Rain 68 20 64 17.8 87 87 S 16 26 29.76 1008 3 4 0.10 2.54
9:34 pm 21:34 Cloudy with Light Rain 68 20 64 17.8 87 87 SSE 15 24 29.76 1008 6 10 0.16 4.06
9:52 pm 21:52 Cloudy with Light Rain 68 20 64 17.8 87 87 S 9 15 29.76 1008 10 16 0.16 4.06
10:16 pm 22:16 Cloudy with Light Rain 69 20.6 64 17.8 84 84 W 8 13 29.77 1008 10 16 0.02 0.51
10:52 pm 22:52 Mostly Cloudy 66 18.9 60 15.6 81 81 Calm 29.77 1008 10 16 0.02 0.51
11:52 pm 23:52 Cloudy 67 19.4 61 16.1 81 81 NW 3 6 29.76 1008 10 16 0.00 0.00

Powered by AerisWeather